Weather History for K06D - July, 2013

Change the Weather History Date:

Friday, July 5, 2013

  Actual Average (KRUG) Record (KRUG)
Temperature  
Mean Temperature 68 °F -  
Max Temperature 80 °F 82 °F 96 °F (1961)
Min Temperature 55 °F 55 °F 38 °F (1984)
Cooling Degree Days 2    
Growing Degree Days 18 (Base 50)    
Moisture  
Dew Point 58 °F    
Average Humidity 68    
Maximum Humidity 100    
Minimum Humidity 42    
Precipitation  
Precipitation 0.04 in - - ()
Sea Level Pressure  
Sea Level Pressure 29.82 in    
Wind  
Wind Speed 8 mph (North)    
Max Wind Speed 14 mph    
Max Gust Speed 18 mph    
Visibility 10 miles    
Events Rain    
Averages and records for this station are not official NWS values.
T = Trace of Precipitation, MM = Missing Value Source: NWS Daily Summary

Daily Weather History Graph

Daily Weather History Graph

Search for Another Location

Airport or City:

Trip Planner

Search our weather history database for the weather conditions in past years. The results will help you decide how hot, cold, wet, or windy it might be!

Date:

Astronomy

Jul. 05, 2013 Rise Set
Actual Time 5:41 AM CDT 9:43 PM CDT
Civil Twilight 5:00 AM CDT 10:25 PM CDT
Nautical Twilight 4:01 AM CDT 11:24 PM CDT
Astronomical Twilight 2:15 AM CDT 1:07 AM CDT
Moon 3:48 AM CDT (7/5) 7:35 PM CDT (7/5)
Length of Visible Light 17h 25m
Length of Day
16h 01m
Waning Crescent, 6% of the Moon is Illuminated
Jul 5
Waning Crescent
Jul 8
New
Jul 15
First Quarter
Jul 22
Full
Jul 29
Last Quarter

Hourly Weather History & Observations

Time (CDT) Temp. Heat Index Dew Point Humidity Pressure Visibility Wind Dir Wind Speed Gust Speed Precip Events Conditions
12:15 AM 66.2 °F - 66.2 °F 100% 29.80 in 10.0 mi North 9.2 mph - N/A   Clear
12:35 AM 64.4 °F - 62.6 °F 94% 29.80 in 10.0 mi NNW 8.1 mph - N/A   Clear
12:55 AM 64.4 °F - 62.6 °F 94% 29.81 in 10.0 mi NW 8.1 mph - N/A   Partly Cloudy
1:15 AM 62.6 °F - 62.6 °F 100% 29.81 in 10.0 mi NNW 6.9 mph - N/A   Clear
1:35 AM 62.6 °F - 62.6 °F 100% 29.81 in 10.0 mi NW 6.9 mph - N/A   Clear
1:55 AM 62.6 °F - 60.8 °F 94% 29.82 in 10.0 mi NNW 9.2 mph - N/A   Clear
2:15 AM 62.6 °F - 59.0 °F 88% 29.82 in 10.0 mi NW 8.1 mph - N/A   Clear
2:35 AM 62.6 °F - 57.2 °F 82% 29.82 in 10.0 mi NW 8.1 mph - N/A   Clear
2:55 AM 60.8 °F - 57.2 °F 88% 29.81 in 10.0 mi NNW 8.1 mph - N/A   Clear
3:15 AM 59.0 °F - 57.2 °F 94% 29.82 in 10.0 mi NW 6.9 mph - N/A   Mostly Cloudy
3:35 AM 59.0 °F - 55.4 °F 88% 29.82 in 10.0 mi NW 5.8 mph - N/A   Scattered Clouds
3:55 AM 59.0 °F - 55.4 °F 88% 29.81 in 10.0 mi NW 8.1 mph - N/A   Partly Cloudy
4:15 AM 59.0 °F - 55.4 °F 88% 29.81 in 10.0 mi NW 9.2 mph - N/A   Clear
4:35 AM 57.2 °F - 55.4 °F 94% 29.82 in 10.0 mi NW 5.8 mph - N/A   Scattered Clouds
4:55 AM 57.2 °F - 55.4 °F 94% 29.81 in 10.0 mi NW 9.2 mph - N/A   Scattered Clouds
5:15 AM 57.2 °F - 53.6 °F 88% 29.81 in 10.0 mi NNW 6.9 mph - N/A   Clear
5:35 AM 57.2 °F - 53.6 °F 88% 29.80 in 10.0 mi NW 8.1 mph - N/A   Clear
5:55 AM 55.4 °F - 53.6 °F 94% 29.81 in 10.0 mi NW 9.2 mph - N/A   Clear
6:15 AM 57.2 °F - 53.6 °F 88% 29.81 in 10.0 mi NW 9.2 mph - N/A   Clear
6:35 AM 57.2 °F - 55.4 °F 94% 29.81 in 10.0 mi NW 8.1 mph - N/A   Clear
6:55 AM 60.8 °F - 55.4 °F 82% 29.81 in 10.0 mi NNW 8.1 mph - N/A   Clear
7:15 AM 62.6 °F - 55.4 °F 77% 29.81 in 10.0 mi NNW 6.9 mph - N/A   Clear
7:35 AM 64.4 °F - 55.4 °F 73% 29.82 in 10.0 mi NW 8.1 mph - N/A   Clear
7:55 AM 66.2 °F - 55.4 °F 68% 29.82 in 10.0 mi NNW 8.1 mph - N/A   Clear
8:15 AM 66.2 °F - 55.4 °F 68% 29.81 in 10.0 mi NNW 8.1 mph - N/A   Clear
8:35 AM 68.0 °F - 57.2 °F 68% 29.82 in 10.0 mi North 9.2 mph - N/A   Clear
8:55 AM 68.0 °F - 55.4 °F 64% 29.82 in 10.0 mi North 10.4 mph - N/A   Clear
9:15 AM 69.8 °F - 55.4 °F 60% 29.82 in 10.0 mi North 8.1 mph - N/A   Clear
9:35 AM 71.6 °F - 55.4 °F 57% 29.83 in 10.0 mi NNW 9.2 mph - N/A   Clear
9:55 AM 71.6 °F - 57.2 °F 60% 29.83 in 10.0 mi North 9.2 mph - N/A   Clear
10:15 AM 73.4 °F - 59.0 °F 61% 29.82 in 10.0 mi North 10.4 mph - N/A   Clear
10:35 AM 73.4 °F - 59.0 °F 61% 29.83 in 10.0 mi North 10.4 mph - N/A   Clear
10:55 AM 75.2 °F - 59.0 °F 57% 29.83 in 10.0 mi North 9.2 mph - N/A   Unknown
11:15 AM 73.4 °F - 60.8 °F 65% 29.83 in 10.0 mi North 10.4 mph - N/A   Unknown
11:35 AM 75.2 °F - 60.8 °F 61% 29.82 in 10.0 mi North 6.9 mph - N/A   Unknown
11:55 AM 75.2 °F - 59.0 °F 57% 29.83 in 10.0 mi NE 4.6 mph - N/A   Unknown
12:15 PM 77.0 °F - 59.0 °F 54% 29.82 in 10.0 mi NE 8.1 mph - N/A   Unknown
12:35 PM 77.0 °F - 55.4 °F 47% 29.82 in 10.0 mi East 5.8 mph - N/A Rain Light Rain
12:55 PM 75.2 °F - 57.2 °F 53% 29.82 in 10.0 mi NNE 4.6 mph - N/A   Unknown
1:15 PM 77.0 °F - 57.2 °F 50% 29.82 in 10.0 mi ENE 4.6 mph - N/A Rain Light Rain
1:35 PM 77.0 °F - 57.2 °F 50% 29.82 in 10.0 mi ENE 6.9 mph - N/A Rain Light Rain
1:55 PM 77.0 °F - 57.2 °F 50% 29.82 in 10.0 mi NE 4.6 mph - N/A   Unknown
2:15 PM 77.0 °F - 57.2 °F 50% 29.82 in 10.0 mi NNE 4.6 mph - N/A Rain Light Rain
2:35 PM 78.8 °F - 57.2 °F 47% 29.82 in 10.0 mi East 5.8 mph - N/A   Unknown
2:55 PM 80.6 °F 80.5 °F 55.4 °F 42% 29.82 in 10.0 mi NE 3.5 mph - N/A   Unknown
3:15 PM 78.8 °F - 55.4 °F 44% 29.82 in 10.0 mi ENE 5.8 mph - N/A Rain Light Rain
3:35 PM 80.6 °F 80.8 °F 57.2 °F 45% 29.82 in 10.0 mi ENE 6.9 mph - N/A Rain Light Rain
3:55 PM 77.0 °F - 55.4 °F 47% 29.82 in 10.0 mi NNE 3.5 mph - N/A   Unknown
4:15 PM 80.6 °F 80.5 °F 55.4 °F 42% 29.82 in 10.0 mi North 4.6 mph - N/A   Unknown
4:35 PM 80.6 °F 80.5 °F 55.4 °F 42% 29.82 in 10.0 mi NE 4.6 mph - N/A   Unknown
4:55 PM 80.6 °F 80.5 °F 55.4 °F 42% 29.81 in 10.0 mi ENE 6.9 mph - N/A   Unknown
5:15 PM 80.6 °F 80.5 °F 55.4 °F 42% 29.81 in 10.0 mi NE 5.8 mph - N/A   Unknown
5:35 PM 80.6 °F 80.5 °F 55.4 °F 42% 29.81 in 10.0 mi East 5.8 mph - N/A   Unknown
5:55 PM 80.6 °F 80.5 °F 55.4 °F 42% 29.80 in 10.0 mi ENE 10.4 mph - N/A   Unknown
6:15 PM 78.8 °F - 55.4 °F 44% 29.80 in 10.0 mi NE 4.6 mph - N/A   Unknown
6:35 PM 78.8 °F - 55.4 °F 44% 29.79 in 10.0 mi East 8.1 mph - N/A   Unknown
6:55 PM 77.0 °F - 55.4 °F 47% 29.79 in 10.0 mi NE 5.8 mph - N/A   Unknown
7:15 PM 77.0 °F - 57.2 °F 50% 29.80 in 10.0 mi NE 5.8 mph - N/A   Unknown
7:35 PM 75.2 °F - 59.0 °F 57% 29.80 in 10.0 mi NE 8.1 mph - N/A   Unknown
7:55 PM 75.2 °F - 60.8 °F 61% 29.79 in 10.0 mi NE 6.9 mph - N/A   Clear
8:15 PM 75.2 °F - 59.0 °F 57% 29.80 in 10.0 mi NE 6.9 mph - N/A   Clear
8:35 PM 73.4 °F - 59.0 °F 61% 29.80 in 10.0 mi NNE 5.8 mph - N/A   Clear
8:55 PM 71.6 °F - 60.8 °F 69% 29.80 in 10.0 mi NE 5.8 mph - N/A   Mostly Cloudy
9:15 PM 71.6 °F - 60.8 °F 69% 29.80 in 10.0 mi ENE 3.5 mph - N/A   Scattered Clouds
9:35 PM 71.6 °F - 60.8 °F 69% 29.82 in 10.0 mi Calm Calm - N/A   Clear
9:55 PM 71.6 °F - 60.8 °F 69% 29.83 in 10.0 mi Calm Calm - N/A   Clear
10:15 PM 69.8 °F - 60.8 °F 73% 29.83 in 10.0 mi Calm Calm - N/A   Clear
10:35 PM 71.6 °F - 57.2 °F 60% 29.86 in 10.0 mi SW 11.5 mph - N/A   Mostly Cloudy
10:55 PM 66.2 °F - 60.8 °F 83% 29.86 in 10.0 mi SW 12.7 mph - N/A Rain Light Rain
11:15 PM 64.4 °F - 62.6 °F 94% 29.87 in 10.0 mi SSW 13.8 mph 18.4 mph N/A Rain Light Rain
11:35 PM 62.6 °F - 62.6 °F 100% 29.87 in 5.0 mi SSW 13.8 mph - 0.02 in Rain Light Rain
11:55 PM 62.6 °F - 62.6 °F 100% 29.86 in 5.0 mi SSE 3.5 mph - 0.04 in Rain Light Rain